Back to catalog

DELTA 1 DEB

AliveSSO
NORAD 20008·DEBRIS·🇺🇸 United States

Launched Mar 5, 1978 from Vandenberg Space Force Base

Loading…

Next Passes (next 24 hours)

TLE

AgingSource: Space-Track

Epoch: Sep 11, 2026, 04:13 UTC

1 20008U 78026HR  26254.17578593  .00000302  00000-0  23747-3 0  9998
2 20008  98.8483 144.4962 0198603 163.9092 196.8498 13.89856587 23289

Track DELTA 1 DEB in real time with AllMySat

Download on the App Store